Flag for Austria Weather past 2 weeks in Scheibbs, Lower Austria, Austria

Now
29 °F

Chilly.


Feels Like: 29 °F
Forecast: 32 / 38 °F
Wind: No wind

Location: Amstetten

Current Time: Mar 4, 2015 at 4:37:01 AM

Latest Report: Mar 4, 2015 at 3:00 AM


Visibility: N/A

Pressure: 30.18 "Hg

Humidity: 90%

Dew point: 26 °F

Location of ScheibbsLocation

Historic Weather in Scheibbs — Graph

°F

Scheibbs temperature yesterday

Maximum temperature yesterday: 48 °F (at 4:00 PM)
Minimum temperature yesterday: 29 °F (at 11:00 PM)
Average temperature yesterday: 39 °F

Past Weeks' High & Low Weather Summary

 TemperatureHumidityPressure
High52 °F (Feb 20, 4:00 PM)100% (Feb 23, 7:00 AM)30.79 "Hg (Feb 23, 7:00 AM)
Low24 °F (Feb 20, 6:00 AM)38% (Mar 3, 5:00 PM)29.54 "Hg (Feb 21, 5:00 PM)
Average37 °F84%30.07 "Hg
* Reported Feb 17 3:00 AM — Mar 4 3:00 AM, Scheibbs, Weather by CustomWeather, © 2015

Note: Actual official high and low records may vary slightly from our data, if they occured in-between our weather recording intervals... More about our weather records

Advertising

Scheibbs weather history for previous 24 hours

 ConditionsComfort  
Time TempWeatherWind HumidityBarometerVisibility
3:00 AM
Wed, Mar 4
29 °FChilly.No wind90%30.18 "HgN/A
2:00 AM29 °FChilly.1 mph90%30.19 "HgN/A
1:00 AM28 °FChilly.1 mph90%30.20 "HgN/A
12:00 AM28 °FChilly.No wind89%30.22 "HgN/A
11:00 PM
Tue, Mar 3
29 °FChilly.1 mph89%30.22 "HgN/A
10:00 PM29 °FChilly.1 mph85%30.23 "HgN/A
9:00 PM32 °FChilly.1 mph78%30.23 "HgN/A
8:00 PM34 °FChilly.1 mph74%30.23 "HgN/A
7:00 PM38 °FChilly.No wind62%30.23 "HgN/A
6:00 PM43 °FQuite cool.2 mph49%30.22 "HgN/A
5:00 PM48 °FCool.5 mph38%30.21 "HgN/A
4:00 PM48 °FCool.5 mph41%30.22 "HgN/A
3:00 PM46 °FCool.5 mph48%30.22 "HgN/A
2:00 PM46 °FCool.3 mph49%30.24 "HgN/A
1:00 PM44 °FQuite cool.5 mph54%30.25 "HgN/A
12:00 PM43 °FQuite cool.5 mph57%30.26 "HgN/A
11:00 AM42 °FQuite cool.5 mph57%30.26 "HgN/A
10:00 AM41 °FQuite cool.2 mph67%30.26 "HgN/A
9:00 AM38 °FChilly.1 mph70%30.26 "HgN/A
8:00 AM37 °FChilly.3 mph69%30.24 "HgN/A
7:00 AM37 °FChilly.5 mph69%30.21 "HgN/A
6:00 AM36 °FChilly.6 mph74%30.20 "HgN/A
5:00 AM37 °FChilly.8 mph72%30.17 "HgN/A
4:00 AM35 °FChilly.5 mph81%30.16 "HgN/A
Weather by CustomWeather, © 2015

See weather overviewHow to use our weather pages